Voltar ao catálogo

CZ-6A DEB

AtivoSSO
NORAD 54493·DEBRIS·🇨🇳 China

Lançado Nov 11, 2022 de Taiyuan Satellite Launch Center

Loading…

Próximas Passagens (próximas 24 horas)

TLE

AtualizadoSource: Space-Track

Época: Sep 14, 2026, 08:06 UTC

1 54493U 22151HV  26257.33774103  .00000976  00000-0  73186-3 0  9996
2 54493  98.9893 219.1269 0182523 218.6119 140.1871 13.89326678193583

Acompanhe CZ-6A DEB em tempo real com AllMySat

Download on the App Store